Mobile, AL

12:10 PM CDT on June 28, 2017 (GMT -0500)
Mobile Regional

Weather History for KMOB - March, 2013

Change the Weather History Date:

Wednesday, March 6, 2013

  Actual Average Record
Temperature  
Mean Temperature 49 °F 58 °F  
Max Temperature 60 °F 69 °F 83 °F (2004)
Min Temperature 38 °F 47 °F 26 °F (1960)
Degree Days  
Heating Degree Days 16 8  
Month to date heating degree days 103 49  
Since 1 July heating degree days 1279 1491  
Cooling Degree Days 0 1  
Month to date cooling degree days 0 6  
Year to date cooling degree days 27 22  
Moisture  
Dew Point 27 °F    
Average Humidity 54    
Maximum Humidity 82    
Minimum Humidity 25    
Precipitation  
Precipitation 0.00 in 0.21 in 3.24 in (1948)
Month to date precipitation 0.00 1.21  
Year to date precipitation 14.18 11.98  
Snow  
Snow 0.00 in 0.00 in - ()
Month to date snowfall 0.0 0.0  
Since 1 July snowfall 0.0 0.1  
Snow Depth 0.00 in    
Sea Level Pressure  
Sea Level Pressure 30.24 in    
Wind  
Wind Speed 10 mph (NNW)    
Max Wind Speed 21 mph    
Max Gust Speed 25 mph    
Visibility 10 miles    
Events      
T = Trace of Precipitation, MM = Missing Value Source: NWS Daily Summary

Daily Weather History Graph

Daily Weather History Graph

Search for Another Location

Airport or City:

Trip Planner

Search our weather history database for the weather conditions in past years. The results will help you decide how hot, cold, wet, or windy it might be!

Date:

Astronomy

Mar. 06, 2013 Rise Set
Actual Time 6:13 AM CST 5:55 PM CST
Civil Twilight 5:49 AM CST 6:19 PM CST
Nautical Twilight 5:21 AM CST 6:47 PM CST
Astronomical Twilight 4:53 AM CST 7:15 PM CST
Moon 2:05 AM CST (3/6) 12:53 PM CST (3/6)
Length of Visible Light 12h 30m
Length of Day
11h 41m
Waning Crescent, 29% of the Moon is Illuminated
Mar 6
Waning Crescent
Mar 11
New
Mar 19
First Quarter
Mar 27
Full
Apr 2
Last Quarter

Hourly Weather History & Observations

Time (CST) Temp. Windchill Dew Point Humidity Pressure Visibility Wind Dir Wind Speed Gust Speed Precip Events Conditions
12:56 AM 43.0 °F 40.3 °F 37.0 °F 80% 30.17 in 10.0 mi WNW 4.6 mph - N/A   Clear
1:56 AM 44.1 °F 38.6 °F 36.0 °F 73% 30.18 in 10.0 mi NW 10.4 mph - N/A   Clear
2:56 AM 42.1 °F 37.7 °F 30.9 °F 65% 30.18 in 10.0 mi NW 6.9 mph - N/A   Clear
3:56 AM 41.0 °F 36.4 °F 28.0 °F 60% 30.19 in 10.0 mi NW 6.9 mph - N/A   Clear
4:56 AM 39.9 °F 35.1 °F 27.0 °F 60% 30.22 in 10.0 mi NW 6.9 mph - N/A   Clear
5:56 AM 39.0 °F 34.0 °F 26.1 °F 60% 30.25 in 10.0 mi NW 6.9 mph - N/A   Clear
6:56 AM 39.0 °F 35.7 °F 27.0 °F 62% 30.26 in 10.0 mi NW 4.6 mph - N/A   Clear
7:56 AM 43.0 °F 37.2 °F 27.0 °F 53% 30.28 in 9.0 mi NNW 10.4 mph - N/A   Clear
8:56 AM 46.0 °F 39.0 °F 24.1 °F 42% 30.28 in 7.0 mi North 17.3 mph - N/A   Clear
9:56 AM 48.9 °F - 21.9 °F 35% 30.28 in 8.0 mi NW 11.5 mph 23.0 mph N/A   Clear
10:56 AM 53.1 °F - 24.1 °F 32% 30.27 in 10.0 mi NNW 13.8 mph 25.3 mph N/A   Clear
11:56 AM 55.0 °F - 23.0 °F 29% 30.25 in 9.0 mi NNW 17.3 mph - N/A   Clear
12:56 PM 57.0 °F - 23.0 °F 27% 30.22 in 10.0 mi WNW 15.0 mph 20.7 mph N/A   Clear
1:56 PM 60.1 °F - 24.1 °F 25% 30.20 in 10.0 mi NNW 15.0 mph 20.7 mph N/A   Partly Cloudy
2:56 PM 60.1 °F - 24.1 °F 25% 30.18 in 10.0 mi NW 13.8 mph 24.2 mph N/A   Clear
3:56 PM 57.9 °F - 24.1 °F 27% 30.19 in 10.0 mi NNW 10.4 mph 21.9 mph N/A   Partly Cloudy
4:56 PM 55.9 °F - 26.1 °F 32% 30.19 in 10.0 mi North 13.8 mph - N/A   Partly Cloudy
5:56 PM 53.1 °F - 26.1 °F 35% 30.22 in 10.0 mi North 10.4 mph - N/A   Scattered Clouds
6:56 PM 48.9 °F - 28.0 °F 44% 30.24 in 10.0 mi North 6.9 mph - N/A   Partly Cloudy
7:56 PM 46.9 °F - 28.0 °F 48% 30.24 in 10.0 mi North 5.8 mph - N/A   Partly Cloudy
8:56 PM 46.0 °F 41.0 °F 28.9 °F 51% 30.27 in 10.0 mi North 10.4 mph - N/A   Clear
9:56 PM 44.1 °F 40.1 °F 28.9 °F 55% 30.28 in 10.0 mi NNE 6.9 mph - N/A   Clear
10:56 PM 42.1 °F 37.7 °F 28.9 °F 60% 30.28 in 10.0 mi North 6.9 mph - N/A   Clear
11:56 PM 39.9 °F 34.5 °F 28.9 °F 65% 30.27 in 10.0 mi North 8.1 mph - N/A   Clear